Wind_Speed
16 18 18 19 18 19 21 22 22 21 20 19 21 22 23 23 23 23 25 28 29 31 33 34 36 37 39 40 41 41 41 42 43 43 44 45 45 45 45 45 44 43 43 44
16 18 20 21 21 21 21 22 23 23 21 21 22 22 24 25 24 25 25 27 29 32 33 34 35 36 38 40 41 41 41 42 42 42 42 43 43 43 43 43 42 43 44 44
16 17 18 20 21 22 22 22 24 24 22 22 23 23 24 25 26 26 26 28 29 31 32 32 33 35 37 38 39 40 40 40 40 40 41 42 42 42 42 42 41 42 43 44
17 18 19 19 19 21 22 23 23 24 24 24 23 23 25 26 27 27 28 29 29 30 32 33 34 35 36 38 39 40 40 39 39 39 40 42 42 42 42 42 42 41 42 44
19 20 20 19 19 20 21 21 23 23 24 24 24 24 24 27 27 27 28 29 30 31 32 34 35 36 35 36 37 38 39 39 40 40 40 41 42 42 42 41 41 42 42 42
22 22 22 20 20 20 21 21 21 22 23 24 25 25 24 26 28 30 30 30 31 31 32 33 35 35 35 35 36 37 38 39 39 39 39 40 40 40 40 40 40 40 40 39
23 24 23 22 22 22 23 23 23 23 22 22 24 25 25 26 27 28 30 30 31 32 32 32 33 34 34 35 36 37 38 40 39 39 38 38 39 38 39 39 38 38 37 37
24 25 24 23 23 24 24 25 25 25 25 24 24 24 26 27 27 28 30 30 30 31 31 31 32 34 35 35 36 37 38 38 38 38 37 38 38 37 37 37 37 37 37 37
24 25 24 24 25 25 25 26 26 26 27 26 26 25 25 26 28 28 28 30 31 31 31 31 32 33 35 35 35 35 35 36 36 37 37 37 36 36 36 35 35 35 36 36
24 24 24 25 26 26 27 27 27 28 28 28 27 27 27 26 27 28 28 28 29 30 31 31 32 32 33 33 33 34 34 35 36 35 35 35 36 35 35 35 35 35 35 35
24 24 24 25 27 28 28 28 28 28 28 28 28 28 28 27 27 27 28 28 29 29 29 30 31 32 32 32 32 33 33 33 33 33 34 34 34 35 35 36 35 36 36 36
24 25 26 26 27 28 29 29 29 29 29 29 29 28 28 27 27 27 27 27 28 29 30 29 30 30 31 31 31 32 33 32 31 32 32 33 33 34 35 35 35 35 35 35
24 26 27 27 28 29 29 29 29 29 29 29 30 29 29 28 28 27 27 27 27 28 28 29 28 28 29 29 30 30 31 31 31 31 31 31 31 32 33 34 34 34 34 34
24 26 27 27 28 28 29 28 28 28 28 28 28 28 28 28 28 28 28 28 28 28 28 28 28 27 27 27 28 28 29 30 30 30 30 30 31 31 32 32 33 34 34 33
25 26 27 27 28 28 28 28 28 28 28 28 28 28 28 28 28 28 28 27 27 27 28 27 27 27 27 27 27 27 28 28 29 29 29 30 31 31 31 32 32 32 32 32
24 25 26 26 27 27 27 27 27 27 28 28 28 28 28 28 27 27 27 27 27 27 27 27 26 26 27 27 27 27 27 28 28 28 29 29 29 30 30 30 31 31 30 30
25 25 26 26 27 27 27 27 27 28 28 28 27 27 27 27 27 27 27 27 27 26 26 26 26 26 26 27 27 27 27 27 27 27 28 29 29 30 30 29 29 29 29 28
26 26 27 28 28 28 28 27 27 27 27 27 27 26 26 26 26 26 26 26 26 25 24 25 25 25 25 25 25 26 26 26 27 27 27 27 28 28 27 27 27 28 27 26
26 27 28 28 28 27 27 26 25 25 25 26 26 26 26 25 25 25 25 25 24 23 23 23 23 24 24 24 24 25 25 25 25 26 26 26 25 25 25 24 24 24 24 24
27 27 27 27 27 26 25 25 24 24 24 24 25 25 25 25 25 25 25 24 23 22 22 22 23 23 23 24 24 24 23 23 23 23 23 24 24 23 22 22 22 22 21 22
27 27 26 26 25 25 24 24 24 24 23 23 23 23 24 24 24 24 23 23 22 22 21 21 22 22 23 23 23 22 22 22 21 21 21 21 21 21 21 21 21 21 21 21
27 26 26 25 25 25 25 25 24 24 23 23 23 23 23 24 24 23 22 22 22 22 22 22 21 21 22 22 22 21 20 20 20 20 19 20 20 20 21 21 21 21 20 20
26 26 26 26 26 26 26 25 25 24 24 24 24 24 24 24 24 23 23 22 23 22 22 22 21 21 21 21 21 21 20 20 20 20 20 19 19 19 19 19 19 19 18 18
26 26 26 26 26 26 26 26 25 25 25 25 25 24 24 23 23 23 23 22 22 22 22 21 21 21 20 20 20 20 20 20 20 19 19 18 18 17 17 17 17 18 17 17
27 27 26 26 27 27 26 26 26 26 25 24 24 23 23 22 21 21 21 21 21 21 21 20 21 21 21 20 21 21 20 19 18 18 17 17 17 17 16 16 16 16 16 16
28 27 26 26 26 26 26 26 26 25 24 22 21 21 21 20 20 20 20 20 20 20 20 20 20 20 19 19 19 18 18 17 16 16 16 16 16 16 16 16 16 16 15 15
28 27 26 25 25 25 24 24 24 23 22 21 20 19 20 19 19 19 19 19 19 19 19 19 19 19 18 18 17 17 17 17 16 16 15 15 15 15 16 16 16 16 16 15
Wind_Direction
252 250 249 249 252 253 253 257 261 263 266 268 266 262 258 256 255 255 254 252 252 251 252 253 252 252 251 251 251 252 254 256 257 256 256 257 257 257 259 261 263 266 267 268
255 253 255 255 255 257 257 259 264 265 266 269 266 262 260 259 259 260 259 258 257 256 256 255 253 253 254 253 251 252 253 256 257 257 257 257 258 260 260 261 263 266 268 270
256 256 259 259 259 260 261 260 264 266 267 268 266 262 262 262 262 263 264 263 262 261 260 257 257 256 256 254 253 252 254 255 257 258 259 259 260 260 260 261 264 266 268 270
261 258 260 263 261 261 261 261 264 268 269 267 267 264 261 262 264 265 266 264 262 260 260 260 258 256 256 256 255 254 255 256 257 259 260 261 261 261 261 263 266 268 270 270
267 265 263 263 264 265 266 264 265 269 270 268 266 264 262 263 265 265 266 265 264 263 263 262 261 259 258 256 256 255 256 256 257 259 260 261 262 262 263 264 267 268 269 270
267 266 268 268 267 267 269 269 268 270 271 269 267 267 265 264 266 267 268 267 266 265 264 263 261 260 259 258 257 256 256 256 258 259 260 261 262 262 263 265 266 268 269 270
269 268 269 271 269 269 270 271 273 274 274 273 273 271 270 269 270 270 270 268 266 266 265 265 262 261 260 259 259 258 257 257 259 260 261 261 261 262 264 265 267 268 269 270
270 269 271 271 271 270 271 271 273 274 275 276 278 278 276 273 272 272 270 269 269 268 266 264 263 263 262 261 260 260 259 259 259 260 260 262 262 262 264 265 267 269 269 270
275 272 272 271 271 271 271 272 274 275 275 276 279 279 279 276 275 274 273 271 270 269 268 265 263 264 263 262 261 260 259 258 259 260 260 260 261 262 263 264 267 269 270 270
278 277 275 273 272 271 273 274 275 274 275 276 278 279 279 279 277 274 272 273 272 270 267 264 263 262 261 260 261 260 259 260 260 260 260 261 262 262 263 265 267 269 269 270
278 278 275 273 272 271 272 273 275 276 276 276 277 279 278 278 277 274 272 271 271 270 268 266 264 262 262 262 261 260 260 261 260 260 261 262 262 262 263 265 267 269 270 271
278 276 274 274 273 272 273 274 275 276 276 275 276 277 277 277 275 274 272 272 272 271 269 268 266 263 260 259 261 261 261 261 261 262 262 262 262 263 264 266 267 269 272 272
278 275 275 275 275 274 273 274 275 275 276 276 276 275 275 275 275 274 273 272 272 271 269 267 266 264 262 261 261 262 262 262 263 263 264 264 265 264 264 265 267 270 272 273
277 276 274 274 274 274 274 274 275 276 275 275 275 274 273 274 273 273 274 273 272 271 270 268 267 265 263 264 263 263 263 263 263 263 265 266 266 265 266 267 267 269 271 273
277 277 275 274 273 274 275 276 276 276 275 275 275 274 272 272 272 272 273 274 273 271 270 269 267 265 263 263 264 263 264 264 264 263 265 267 267 267 268 268 269 270 271 272
278 277 277 275 274 274 275 276 276 276 277 277 276 275 273 270 270 270 271 272 273 271 270 269 267 265 264 265 266 265 264 264 265 266 266 267 268 270 270 269 269 270 270 269
280 279 278 276 276 275 275 276 276 275 276 276 276 275 273 271 270 271 271 272 272 271 269 267 267 266 266 266 267 266 265 265 266 269 270 269 270 271 270 268 267 267 267 267
283 281 279 278 277 277 275 275 276 276 275 275 275 275 274 273 272 271 272 271 271 270 268 267 266 266 266 266 266 266 266 267 268 270 271 271 271 270 269 267 266 266 265 265
286 283 280 278 277 276 276 276 277 277 276 275 275 275 273 272 272 272 271 270 269 269 268 267 266 264 264 266 267 267 267 267 268 268 269 270 270 269 268 268 267 266 264 265
286 284 281 278 277 277 276 277 277 277 276 276 276 276 274 274 273 271 269 268 267 268 267 266 266 264 264 265 266 266 266 267 268 268 269 269 267 265 265 266 266 265 264 266
285 283 280 277 277 276 276 277 277 277 276 275 276 276 275 274 272 270 268 266 264 264 265 265 266 265 265 265 264 264 264 265 267 268 267 267 265 263 262 263 265 265 266 268
285 282 279 276 276 276 277 277 276 276 276 275 276 277 275 273 271 269 268 266 263 261 262 264 266 266 265 263 262 263 264 265 265 266 266 266 265 263 262 263 264 265 267 268
286 283 279 276 275 276 277 277 277 276 276 276 276 276 276 274 271 268 266 265 263 263 264 264 264 266 266 263 261 261 262 263 264 265 265 264 262 262 261 262 262 264 264 263
286 283 280 277 276 276 277 277 277 276 275 276 276 275 275 274 272 269 266 264 263 263 263 263 263 264 263 263 261 260 260 261 263 264 264 262 260 259 259 260 261 262 260 259
286 284 281 279 277 276 276 276 276 275 274 273 274 273 272 271 270 268 266 264 263 262 262 263 263 262 262 261 260 259 259 259 260 260 261 258 255 255 256 257 257 257 256 255
285 283 281 280 278 277 277 277 276 275 273 271 271 271 268 267 268 268 266 265 264 263 263 262 262 261 259 258 256 255 255 255 255 256 255 253 252 253 254 254 255 254 253 252
285 283 281 280 279 279 278 277 275 273 272 269 268 268 266 265 266 267 267 265 264 263 262 261 260 259 257 255 253 253 254 255 253 252 252 253 254 255 255 255 254 252 249 248
Height
5613 5613 5614 5614 5615 5615 5615 5616 5617 5618 5619 5619 5618 5617 5618 5618 5618 5619 5619 5621 5622 5623 5624 5626 5627 5629 5631 5634 5636 5639 5641 5643 5644 5646 5648 5650 5651 5652 5653 5654 5655 5655 5656 5656
5609 5609 5609 5610 5611 5610 5611 5611 5611 5612 5613 5613 5612 5611 5611 5611 5612 5612 5612 5613 5613 5615 5616 5617 5618 5620 5622 5623 5626 5628 5630 5632 5634 5636 5637 5639 5640 5641 5642 5643 5643 5644 5645 5645
5604 5604 5604 5605 5606 5606 5606 5606 5606 5606 5608 5606 5605 5605 5605 5605 5605 5605 5605 5605 5606 5606 5607 5608 5609 5610 5612 5613 5615 5617 5619 5621 5623 5625 5626 5627 5628 5630 5631 5632 5632 5633 5633 5633
5598 5599 5599 5603 5600 5600 5600 5600 5600 5600 5600 5599 5599 5599 5599 5598 5598 5598 5598 5598 5598 5598 5598 5599 5599 5600 5602 5603 5605 5607 5609 5610 5612 5614 5615 5616 5617 5619 5619 5620 5621 5622 5622 5622
5592 5592 5593 5595 5595 5594 5593 5594 5594 5594 5593 5593 5592 5592 5592 5591 5591 5591 5590 5590 5590 5590 5590 5590 5590 5591 5591 5593 5594 5596 5598 5599 5601 5602 5604 5605 5606 5607 5608 5609 5610 5610 5610 5610
5586 5585 5586 5590 5589 5587 5588 5588 5588 5587 5586 5586 5585 5585 5586 5584 5584 5583 5582 5582 5582 5581 5581 5581 5581 5581 5582 5583 5584 5586 5587 5589 5590 5591 5593 5594 5595 5596 5597 5598 5598 5599 5599 5599
5580 5579 5580 5582 5581 5580 5581 5582 5580 5579 5579 5578 5578 5578 5578 5576 5575 5574 5574 5573 5573 5573 5572 5572 5572 5572 5572 5573 5574 5576 5577 5578 5579 5580 5581 5583 5584 5585 5586 5587 5587 5588 5588 5588
5573 5572 5576 5575 5574 5574 5574 5573 5572 5571 5571 5571 5570 5569 5569 5568 5567 5566 5565 5564 5564 5564 5563 5563 5562 5563 5563 5564 5565 5565 5566 5567 5568 5569 5571 5572 5573 5574 5575 5576 5576 5577 5577 5577
5568 5569 5568 5567 5566 5565 5565 5565 5564 5564 5563 5563 5563 5562 5561 5560 5559 5558 5557 5556 5555 5555 5554 5554 5553 5553 5554 5554 5554 5555 5556 5557 5558 5559 5560 5561 5563 5564 5565 5565 5566 5566 5566 5566
5560 5560 5560 5559 5558 5557 5557 5556 5556 5556 5555 5555 5554 5554 5553 5552 5551 5550 5549 5548 5547 5546 5545 5545 5544 5544 5544 5544 5544 5545 5546 5547 5548 5549 5549 5550 5552 5553 5554 5555 5556 5556 5556 5556
5552 5553 5552 5551 5550 5549 5549 5548 5548 5548 5547 5546 5546 5545 5545 5544 5542 5541 5540 5539 5538 5538 5537 5536 5535 5534 5534 5534 5535 5535 5536 5537 5537 5538 5539 5541 5542 5543 5544 5545 5546 5546 5546 5545
5545 5544 5543 5543 5542 5541 5540 5540 5540 5539 5538 5537 5537 5536 5536 5535 5534 5533 5532 5531 5530 5529 5528 5527 5526 5525 5525 5525 5525 5526 5526 5527 5528 5529 5530 5531 5532 5532 5533 5534 5535 5535 5535 5535
5536 5535 5534 5534 5533 5532 5532 5531 5531 5530 5529 5528 5528 5527 5526 5526 5525 5524 5523 5522 5521 5520 5519 5518 5517 5517 5516 5516 5516 5516 5517 5518 5518 5519 5520 5521 5522 5522 5523 5524 5524 5525 5525 5524
5527 5526 5525 5525 5524 5523 5523 5522 5522 5521 5520 5519 5518 5518 5517 5516 5516 5515 5514 5513 5512 5511 5510 5509 5509 5509 5508 5507 5507 5507 5508 5509 5510 5510 5511 5512 5512 5513 5513 5514 5514 5514 5515 5514
5518 5517 5517 5516 5515 5515 5514 5513 5513 5512 5511 5510 5509 5508 5508 5507 5507 5506 5505 5504 5503 5502 5501 5501 5500 5500 5500 5500 5500 5500 5500 5501 5501 5502 5502 5503 5503 5503 5504 5504 5504 5504 5504 5505
5510 5509 5508 5507 5507 5506 5505 5504 5503 5503 5502 5501 5500 5499 5499 5498 5497 5497 5496 5495 5494 5494 5493 5492 5492 5492 5492 5492 5492 5492 5492 5492 5493 5493 5494 5494 5494 5494 5494 5494 5495 5495 5495 5496
5502 5501 5500 5499 5498 5497 5496 5495 5494 5494 5493 5492 5491 5490 5490 5489 5489 5488 5487 5486 5485 5485 5484 5484 5484 5484 5484 5484 5484 5484 5484 5484 5485 5485 5485 5485 5485 5485 5485 5486 5486 5486 5487 5487
5493 5492 5491 5490 5489 5488 5487 5487 5485 5485 5484 5483 5482 5481 5481 5480 5480 5479 5479 5478 5477 5477 5476 5476 5476 5476 5476 5476 5476 5476 5476 5477 5477 5477 5477 5476 5476 5476 5477 5477 5477 5478 5478 5479
5484 5483 5482 5481 5480 5479 5479 5478 5477 5476 5475 5474 5474 5473 5472 5472 5471 5471 5470 5470 5469 5469 5469 5468 5468 5468 5468 5468 5468 5468 5469 5468 5468 5468 5468 5468 5468 5468 5469 5469 5469 5470 5470 5471
5476 5474 5473 5472 5471 5471 5470 5469 5469 5468 5467 5466 5465 5465 5464 5463 5463 5462 5462 5462 5462 5461 5461 5461 5461 5461 5461 5461 5461 5461 5461 5461 5461 5460 5460 5460 5460 5461 5461 5462 5462 5463 5464 5464
5467 5466 5464 5463 5463 5462 5461 5461 5460 5460 5459 5458 5457 5457 5456 5455 5455 5454 5454 5454 5454 5453 5453 5453 5454 5453 5453 5453 5454 5453 5453 5453 5453 5453 5453 5453 5453 5454 5455 5455 5456 5457 5457 5458
5458 5456 5455 5455 5454 5454 5453 5452 5452 5451 5450 5450 5449 5448 5447 5447 5446 5446 5446 5446 5446 5446 5446 5446 5447 5446 5446 5446 5446 5446 5447 5447 5447 5446 5446 5447 5447 5447 5448 5449 5449 5450 5451 5451
5449 5447 5446 5446 5445 5445 5444 5444 5443 5443 5442 5441 5441 5440 5439 5439 5438 5438 5438 5439 5439 5439 5439 5439 5439 5439 5439 5439 5439 5440 5440 5440 5440 5440 5440 5440 5441 5441 5442 5443 5443 5444 5444 5445
5440 5438 5437 5437 5436 5436 5436 5435 5434 5434 5433 5433 5432 5432 5431 5430 5430 5430 5430 5430 5431 5431 5431 5431 5431 5432 5432 5432 5432 5433 5433 5433 5433 5434 5434 5434 5435 5436 5436 5437 5438 5438 5439 5439
5431 5429 5429 5428 5427 5427 5426 5426 5425 5425 5424 5424 5424 5423 5423 5422 5422 5422 5422 5423 5423 5423 5424 5424 5424 5424 5425 5425 5425 5426 5426 5427 5427 5428 5428 5429 5429 5430 5431 5432 5432 5433 5434 5434
5421 5420 5419 5419 5418 5417 5417 5416 5416 5416 5415 5415 5415 5415 5415 5415 5415 5415 5415 5415 5416 5416 5416 5417 5417 5417 5418 5418 5419 5419 5420 5421 5422 5422 5423 5423 5424 5425 5426 5426 5427 5428 5429 5429
5412 5411 5410 5409 5409 5408 5407 5407 5407 5407 5407 5407 5407 5407 5408 5408 5408 5408 5408 5408 5409 5409 5409 5410 5410 5411 5411 5412 5413 5414 5414 5415 5416 5417 5418 5419 5419 5420 5420 5421 5422 5423 5423 5424